Location: Hilton Head Island
(32.2163°N, 80.7526°W)
Time: 22:03:02
(UTC-05:00)

Explorer 7 - Pass Details

Date: 17 February 2026
Orbit: 430 x 542 km, 50.2° (Epoch: 5 March)

Event Time Altitude Azimuth Distance (km) Brightness Sun altitude
Rises 21:31:40 0° 319° (NW) 2,585 - -42.8°
Reaches altitude 10° 21:33:55 10° 328° (NNW) 1,720 - -43.3°
Maximum altitude 21:37:37 39° 38° (NE) 789 - -44.1°
Drops below altitude 10° 21:41:24 10° 108° (ESE) 1,770 - -44.8°
Sets 21:43:45 0° 116° (ESE) 2,671 - -45.3°
